Сакарчаге

Туркменистан     37°39′48″N   61°39′18″E
В апреле 2022 года жителям России запретили посещать сайт meteo.paraplan.net по решению Генеральной прокуратуры. Аудитория сайта уменьшилась в 10 раз. Владельцы сайта не видят смысла в поддержке погодного сервера в таких условиях. Сайт будет закрыт в октябре.
темп.,
°C
ветер,
м/с
пор.,
м/с
влажн.,
%
обл.,
%
осадки,
мм/ч
давл.,
гПа
погр.,
м
25 сентября, вс
вс2523:00+25ссв33130 0.0 101013
02:00+22всв23140 0.0 100911
05:00+22в33190 0.0 101016
08:00+23юв23190 0.0 101162
11:00+32юв23120 0.0 1011785
14:00+35св2280 0.0 10091807
17:00+35с3470 0.0 10091815
20:00+28ссв33110 0.0 101118
26 сентября, пн
пн2623:00+25сз59170 0.0 1013131
02:00+24сз613430 0.0 1014349
05:00+23сз714450 0.0 1015417
08:00+22ссз813530 0.0 1018512
11:00+26ссз911370 0.0 10201115
14:00+29ссз88300 0.0 10181652
17:00+28с77310 0.0 10181697
20:00+24с410360 0.0 1019229
27 сентября, вт
вт2723:00+22с49330 0.0 1019199
02:00+20ссв410320 0.0 1019219
05:00+18ссв410330 0.0 1019201
08:00+18св48280 0.0 1019243
11:00+25св45180 0.0 1019846
14:00+29ссв45140 0.0 10161497
17:00+29ссв55130 0.0 10151528
20:00+23ссв47140 0.0 1016101
28 сентября, ср
ср2823:00+21св49170 0.0 1016144
02:00+19всв46180 0.0 101599
05:00+17всв45210 0.0 101475
08:00+18всв35220 0.0 1014135
11:00+26всв34130 0.0 1013662
14:00+30св3390 0.0 10101174
17:00+31св4490 0.0 10091341
20:00+25всв44140 0.0 100940
29 сентября, чт
чт2923:00+22всв45170 0.0 100960
02:00+20всв47190 0.0 100994
05:00+19в44220 0.0 100851
08:00+21в35200 0.0 1009128
11:00+30вюв44110 0.0 1008637
14:00+34в32100 0.0 10051567
17:00+34всв33110 0.0 10051564
20:00+27всв45160 0.0 100653